Regional Weather Roundup
Issued by NWS

Home | Current Version | Previous Version | Text Only | Print | Product List | Glossary On
Versions: 1 2 3 4 5 6 7 8 9 10 11 12 13 14 15 16 17 18 19 20 21 22 23 24 25 26 27 28 29 30 31 32 33 34 35 36 37 38 39 40 41 42 43 44 45 46 47 48 49 50
000
ASUS46 KPQR 060210
RWROR

OREGON REGIONAL WEATHER ROUNDUP
NATIONAL WEATHER SERVICE PORTLAND OR
700 PM PDT TUE MAY 05 2015

NOTE: "FAIR" INDICATES FEW OR NO CLOUDS BELOW 12,000 FEET WITH
NO SIGNIFICANT WEATHER AND/OR OBSTRUCTIONS TO VISIBILITY.

ORZ001>013-060300-
NORTHWEST OREGON


CITY           SKY/WX    TMP DP  RH WIND       PRES   REMARKS
ASTORIA        SUNNY     53  43  68 W7        30.10S
NEWPORT        SUNNY     54  45  71 NW8       30.15F
PORTLAND       MOSUNNY   58  42  55 N7        30.06S
VANCOUVER WA   MOSUNNY   58  38  47 N7        30.06S
SCAPPOOSE      LGT RAIN  58  37  45 NW8G16    30.06S
HILLSBORO      PTSUNNY   57  38  48 W16       30.06S
AURORA         SUNNY     59  38  45 W7        30.07S
MCMINNVILLE    MOSUNNY   58  40  51 NW10      30.08S
SALEM          SUNNY     59  35  40 NW10      30.07R
CORVALLIS      SUNNY     57  39  51 NW12G17   30.09S
EUGENE         PTSUNNY   57  42  57 N9        30.06S
$$

ORZ021-028-060300-
SOUTHWEST OREGON


CITY           SKY/WX    TMP DP  RH WIND       PRES   REMARKS
NORTH BEND     SUNNY     55  46  71 N14       30.14S
BROOKINGS      SUNNY     57  44  62 NW13      30.02S
ROSEBURG       SUNNY     63  38  39 NW8       30.04F
SEXTON SUMMIT  MOSUNNY   48  32  53 MISG      30.02F
MEDFORD        SUNNY     65  30  27 N15       29.99R
$$

ORZ014>016-041-060300-
COLUMBIA GORGE


CITY           SKY/WX    TMP DP  RH WIND       PRES   REMARKS
TROUTDALE      PTSUNNY   59  39  47 NW10      30.05S
THE DALLES     MOSUNNY   57  39  51 NW16      30.01S
$$

ORZ029>031-041-044-049-050-061>064-502-503-505>511-060300-
EASTERN OREGON


CITY           SKY/WX    TMP DP  RH WIND       PRES   REMARKS
REDMOND        SUNNY     54  23  30 NW15      29.97S
BEND           SUNNY     54  23  30 NW16G23   29.98R
PRINEVILLE     SUNNY     55  27  33 NW15G22   29.96S
KLAMATH FALLS  SUNNY     57  20  23 NW20      29.94S
LAKEVIEW       SUNNY     61  16  17 W15       29.91S
HERMISTON      SUNNY     64  29  26 W15       29.94S
PENDLETON      SUNNY     59  26  28 W13       29.95S
JOHN DAY       MOSUNNY   57  21  25 NW12      29.94R
MEACHAM        CLEAR     49  21  33 NW6       29.97S
LA GRANDE      CLEAR     55  19  24 N13       29.94S
BAKER CITY     PTCLDY    53  24  32 NW22      29.93R
BURNS          CLEAR     58  14  17 W14       29.88F
ROME             N/A     66   9  10 N16G24    29.82R
ONTARIO        CLEAR     65  23  20 NW23      29.82R
$$



USA.gov is the U.S. government's official web portal to all federal, state and local government web resources and services.